Home   Weather   Kapfenberg   Past weeks

Flag for Austria Past Weather in Kapfenberg, Styria, Austria — Yesterday and Last 2 Weeks

Now
61 °F

Partly sunny.


Feels Like: 61 °F
Forecast: 58 / 81 °F
Wind: 5 mph from West

Location: Zeltweg

Current Time: Aug 17, 2017 at 10:04:04 am

Latest Report: Aug 17, 2017 at 8:50 am


Visibility: 12 mi

Pressure: 30.24 "Hg (28.49 "Hg at 504m altitude)

Humidity: 83%

Dew Point: 55 °F

Location of KapfenbergLocation

Past Weather in Kapfenberg — Graph

°F

Kapfenberg Temperature Yesterday

Maximum temperature yesterday: 79 °F (at 1:50 pm)
Minimum temperature yesterday: 54 °F (at 5:50 am)
Average temperature yesterday: 66 °F

High & Low Weather Summary for the Past Weeks

 TemperatureHumidityPressure
High90 °F (Aug 3, 4:20 pm)100% (Aug 3, 1:50 am)30.27 "Hg (Aug 3, 1:50 am)
Low50 °F (Aug 12, 4:50 am)34% (Aug 11, 5:20 pm)29.89 "Hg (Aug 4, 6:50 pm)
Average69 °F71%30.11 "Hg
* Reported Aug 2 8:20 am — Aug 17 8:50 am, Kapfenberg. Weather by CustomWeather, © 2017

Note: Actual official high and low records may vary slightly from our data, if they occured in-between our weather recording intervals... More about our weather records

Advertising

Kapfenberg Weather History for the Previous 24 Hours

Scroll right to see more
 ConditionsComfort  
Time TempWeatherWind HumidityBarometerVisibility
8:50 am
Thu, Aug 17
61 °FPartly sunny.5 mph83%30.24 "Hg12 mi
8:20 am59 °FPartly sunny.3 mph88%30.24 "Hg12 mi
7:50 am59 °FPartly sunny.2 mph88%30.24 "Hg12 mi
7:20 am59 °FPartly sunny.5 mph88%30.24 "Hg12 mi
6:50 am59 °FPartly sunny.3 mph88%30.21 "Hg12 mi
5:50 am59 °FPassing clouds.3 mph88%30.21 "Hg12 mi
4:50 am59 °FPartly cloudy.1 mph94%30.21 "Hg12 mi
1:50 am61 °FPartly cloudy.2 mph94%30.24 "Hg12 mi
10:50 pm
Wed, Aug 16
61 °FPartly cloudy.2 mph94%30.27 "Hg12 mi
9:50 pm61 °FPartly cloudy.2 mph94%30.24 "Hg12 mi
8:50 pm63 °FPartly cloudy.2 mph94%30.24 "Hg16 mi
7:50 pm64 °FBroken clouds.5 mph88%30.24 "Hg19 mi
7:20 pm64 °FBroken clouds.3 mph88%30.24 "Hg19 mi
6:50 pm63 °FPartly sunny.1 mph94%30.24 "Hg19 mi
6:20 pm63 °FMild.No wind88%30.24 "HgN/A
5:50 pm63 °FMild.1 mph88%30.24 "HgN/A
5:20 pm61 °FCool.2 mph94%30.21 "HgN/A
4:50 pm63 °FMild.2 mph94%30.24 "HgN/A
4:20 pm63 °FStrong thunderstorms. Broken clouds.21 mph88%30.24 "Hg2 mi
3:50 pm72 °FThunderstorms. Broken clouds.8 mph61%30.18 "Hg12 mi
3:20 pm73 °FThunderstorms. Partly sunny.7 mph53%30.18 "Hg12 mi
2:50 pm75 °FPartly sunny.9 mph50%30.18 "Hg19 mi
2:20 pm79 °FBroken clouds.10 mph45%30.18 "Hg19 mi
1:50 pm79 °FPartly sunny.3 mph45%30.18 "Hg19 mi
1:20 pm77 °FPartly sunny.2 mph51%30.18 "Hg19 mi
12:50 pm77 °FBroken clouds.2 mph51%30.18 "Hg19 mi
12:20 pm75 °FBroken clouds.3 mph57%30.21 "Hg19 mi
11:50 am73 °FBroken clouds.2 mph61%30.21 "Hg19 mi
11:20 am70 °FBroken clouds.2 mph64%30.21 "Hg16 mi
10:50 am70 °FBroken clouds.2 mph69%30.21 "Hg12 mi
10:20 am68 °FBroken clouds.2 mph73%30.21 "Hg12 mi
Weather by CustomWeather, © 2017

See weather overviewHow to use our weather pages